Regional Weather Roundup
Issued by NWS Upton, NY

Home | Current Version | Previous Version | Text Only | Print | Product List | Glossary On
Versions: 1 2 3 4 5 6 7 8 9 10 11 12 13 14 15 16 17 18 19 20 21 22 23 24 25 26 27 28 29 30 31 32 33 34 35 36 37 38 39 40 41 42 43 44 45 46 47 48 49 50
000
ASUS41 KOKX 270705
RWROKX

REGIONAL WEATHER ROUNDUP
NATIONAL WEATHER SERVICE NEW YORK NY
200 AM EST FRI FEB 27 2015

NOTE: "FAIR" INDICATES FEW OR NO CLOUDS BELOW 12,000 FEET WITH NO
SIGNIFICANT WEATHER AND/OR OBSTRUCTIONS TO VISIBILITY.

NYZ071-072-176-178-NJZ106-104-270800-
NEW YORK CITY METRO AREA


CITY           SKY/WX    TMP DP  RH WIND       PRES   REMARKS
CENTRAL PARK   CLEAR     21   5  50 CALM      30.20R
LAGUARDIA APRT MOCLDY    22   8  55 N6        30.19R WCI  14
KENNEDY INTL   MOCLDY    22   5  48 N9        30.21R WCI  12
NEWARK/LIBERTY MOCLDY    19  10  68 N5        30.20R WCI  12
BRNX BOT. GARD   N/A    N/A N/A N/A CALM      30.21R
TETERBORO      PTCLDY    18   7  62 N3        30.19R
$$

NYZ177-179-078>081-270800-
LONG ISLAND NEW YORK

CITY           SKY/WX    TMP DP  RH WIND       PRES   REMARKS
FARMINGDALE    PTCLDY    20   4  50 N8        30.19R WCI  10
ISLIP          CLEAR     20  10  65 NW3       30.17R
SHIRLEY        CLEAR     19  11  70 N7        30.19R WCI  10
WESTHAMPTON    CLEAR      8   3  80 N5        30.18R WCI   0
MONTAUK POINT    N/A     25  14  63 NW5       30.17R WCI  19
$$

NYZ052-065-067-270800-
HUDSON VALLEY

CITY           SKY/WX    TMP DP  RH WIND       PRES   REMARKS
WHITE PLAINS   CLEAR     16   0  49 NW9       30.15R WCI   4
NEWBURGH       PTCLDY    14   1  57 CALM      30.17R
MONTGOMERY     PTCLDY     4   1  88 CALM      30.17R
POUGHKEEPSIE   CLEAR      9   1  70 CALM      30.20R
ALBANY         CLOUDY     9  -5  53 N7        30.23R WCI  -2
$$

NJZ001-105-106-008-010-013-015-019>022-104-270800-
NEW JERSEY

CITY           SKY/WX    TMP DP  RH WIND       PRES   REMARKS
NEWARK/LIBERTY MOCLDY    19  10  68 N5        30.20R WCI  12
TETERBORO      PTCLDY    18   7  62 N3        30.19R
CALDWELL       CLEAR     15   6  67 CALM      30.21R
MORRISTOWN     CLEAR     14   9  79 CALM      30.20R
SOMERVILLE     CLEAR     13   9  84 NW3       30.19R
SUSSEX         CLEAR      5   2  87 CALM      30.18R
ANDOVER          N/A      4   1  88 CALM      30.18R
TRENTON        MOCLDY    20  12  71 NW6       30.19R WCI  12
MILLVILLE      CLEAR     14  11  87 CALM      30.19R
ATLANTIC CITY  CLEAR     16  13  88 NW3       30.19
WRIGHTSTOWN    CLEAR     19  13  77 NW3       30.18R
TOMS RIVER     PTCLDY    19  16  86 N6        30.20R WCI  11
BELMAR         PTCLDY    19   9  63 NW5       30.18R WCI  13
$$

PAZ047>061-062-071-270800-
EASTERN PENNSYLVANIA

CITY           SKY/WX    TMP DP  RH WIND       PRES   REMARKS
PHILADELPHIA   CLOUDY    26  18  71 CALM      30.20R
ALLENTOWN      MOCLDY    16   7  67 NW5       30.19R WCI   9
SCRANTON       CLOUDY    13   2  61 N7        30.18R WCI   3
$$

CTZ002-004>006-009-010-012-RIZ004-006-007-MAZ004-011-015-270800-
SOUTHERN NEW ENGLAND
 IN CT

CITY           SKY/WX    TMP DP  RH WIND       PRES   REMARKS
BRADLEY INTL   PTCLDY    15  -1  49 NW3       30.16R
HARTFORD       PTCLDY    18   0  45 N7        30.18R WCI   9
DANBURY        CLEAR      7  -1  70 CALM      30.17R
WTRBRY/OXFORD  CLEAR     12  -4  48 N8        30.13R WCI   1
BRIDGEPORT     PTCLDY    18   2  49 N7        30.18R WCI   9
MERIDEN        PTCLDY    16  -1  47 N5        30.18R WCI   9
NEW HAVEN      CLEAR     19   1  45 N6        30.17R WCI  11
CHESTER        FAIR      19   5  53 NW6       30.14R WCI  11
GROTON         CLEAR     13  11  92 NE3       30.16R
WILLIMANTIC    CLEAR     10   6  84 CALM      30.16R

 IN RI

CITY           SKY/WX    TMP DP  RH WIND       PRES   REMARKS
PROVIDENCE     CLEAR     12   8  84 CALM      30.15R
BLOCK ISLAND   CLEAR     19  10  68 CALM      30.13R
WESTERLY       CLEAR     12   8  84 CALM      30.16R

 IN MA

CITY           SKY/WX    TMP DP  RH WIND       PRES   REMARKS
BOSTON         PTCLDY    18   0  45 NW7       30.16R WCI   9
WORCESTER      MOCLDY    13  -4  46 NW9       30.08R WCI   1
WESTFIELD      CLOUDY    11   0  61 CALM      30.16R
PROVINCETOWN   CLEAR     25   9  50 N7        30.13R WCI  17
NANTUCKET      PTCLDY    24  14  65 N10       30.11R WCI  14
$$

ANZ330-335-338-340-345-350-353-355-270800-
COASTAL MARINE OBSERVATIONS


STATION/POSITION TIME  SKY/WX   TEMP    WIND        PRES    VSBY  WAVE
                                AIR SEA DIR/SP/G                  HT/PER
                 (UTC)          (F)     (DEG/KT/KT) (MB)    (MI)  (FT/S)
NY HARB ENTRANCE 0700            26 38  360/ 12/ 16 1022.1          3/11
4S FIRE IS       0600               32                N/A           3/ 9
20S FIRE ISLAND  0600               36              1021.2          4/ 6
23SW MTP         0700                                 N/A           4/ 6
HUDSON CANYON    NOT AVBL
EXECUTION ROCKS  NOT AVBL
WESTERN LI SOUND NOT AVBL
CENTRAL LI SOUND NOT AVBL
EASTERN LI SOUND NOT AVBL
ROBBINS REEF     0600            22     360/ 12/ 13 1020.6
$$


>>>>>>>>>>>>>>>>>>>>>>>>>>>> KEY <<<<<<<<<<<<<<<<<<<<<<<<<<<
>                                                          <
>     SKY/WX - SKY CONDITION/PRESENT WEATHER               <
>     TMP    - TEMPERATURE IN FAHRENHEIT                   <
>     DP     - DEWPOINT IN FAHRENHEIT                      <
>     RH     - RELATIVE HUMIDITY IN PERCENT                <
>     WIND   - DIRECTION AND SPEED IN MPH                  <
>     PRES   - MEAN SEA LEVEL PRESSURE IN INCHES OF HG     <
>     WCI    - WIND CHILL INDEX                            <
>     VSB    - VISIBILITY IN MILES                         <
>     HX     - HEAT INDEX                                  <
>     TC     - TEMPERATURE IN CELSIUS                      <
>     VRB    - VARIABLE WIND DIRECTION                     <
>                                                          <
>>>>>>>>>>>>>>>>>>>>>>>>>>>> KEY <<<<<<<<<<<<<<<<<<<<<<<<<<<





USA.gov is the U.S. government's official web portal to all federal, state and local government web resources and services.